Location: Unspecified
(0.0000°N, 0.0000°E)
Time: 13:10:32
(UTC+00:00)

Vanguard 3 - Visible Passes

Search period start: 24 April 2017 00:00
Search period end: 04 May 2017 00:00
Orbit: 507 x 3266 km, 33.4° (Epoch: 22 April)

Date Brightness Start Highest point End Pass type
(mag) Time Alt. Az. Time Alt. Az. Time Alt. Az.
24 Apr 9.4 04:54:54 10° S 04:57:39 14° SE 05:01:01 10° ESE visible
24 Apr 9.2 18:27:36 10° NW 18:45:09 84° NE 18:54:18 14° ESE visible
24 Apr 9.7 20:48:12 10° W 20:58:24 28° SW 20:58:55 28° SW visible
25 Apr 9.3 19:28:57 10° WNW 19:44:11 54° SW 19:49:41 28° SSE visible
26 Apr 9.1 04:39:12 10° S 04:42:16 17° SE 04:46:10 10° E visible
26 Apr 9.5 18:10:45 10° NW 18:29:08 85° SW 18:40:00 10° SE visible
26 Apr 9.8 20:32:25 10° W 20:42:40 25° SW 20:45:04 23° SSW visible
27 Apr 9.8 19:12:31 10° WNW 19:28:11 48° SW 19:35:48 18° SSE visible
28 Apr 8.7 04:24:42 15° S 04:26:55 21° SE 04:31:10 10° E visible
28 Apr 9.8 17:54:01 10° WNW 18:12:58 76° SW 18:24:39 10° SE visible
28 Apr 10.0 20:16:44 10° W 20:26:57 23° SW 20:31:08 18° S visible
29 Apr 7.3 05:20:19 10° SW 05:24:44 77° SE 05:32:00 10° ENE visible
29 Apr 10.1 18:56:13 10° WNW 19:12:07 43° SW 19:21:50 11° SSE visible
30 Apr 8.1 04:10:53 25° SSE 04:11:37 26° SE 04:16:04 10° E visible
30 Apr 10.2 20:01:10 10° W 20:11:14 21° SW 20:17:07 13° S visible
01 May 6.9 05:06:17 17° WSW 05:09:33 76° NW 05:16:04 10° NE visible
01 May 10.3 18:40:02 10° W 18:56:01 38° SW 19:06:38 10° SSE visible
02 May 7.9 03:57:03 33° ESE 03:57:03 33° ESE 04:00:53 10° ENE visible
02 May 10.4 19:45:43 10° WSW 19:55:34 19° SW 20:02:53 10° S visible
03 May 7.1 04:52:26 27° W 04:54:28 51° NNW 05:00:06 10° NE visible
03 May 10.4 18:24:00 10° W 18:39:54 35° SW 18:51:01 10° SSE visible
